Location: Aragnouet
(42.7874°N, 0.2165°E)
Time: 02:12:33
(UTC+00:00)

Cosmos 1825 Rocket - Pass Details

Date: 09 April 2020
Orbit: 604 x 631 km, 82.5° (Epoch: 05 June)

Event Time Altitude Azimuth Distance (km) Brightness Sun altitude
Rises 19:03:51 0° 355° (N) 2,900 7.3 -6.0°
Reaches altitude 10° 19:06:08 10° 359° (N) 1,985 6.4 -6.4°
Maximum altitude 19:10:29 61° 80° (E) 699 3.6 -7.1°
Drops below altitude 10° 19:14:45 10° 161° (SSE) 1,954 5.8 -7.9°
Sets 19:16:58 0° 165° (SSE) 2,850 6.6 -8.3°
